Overview Statistics Trail Chart Weather Telemetry Raw packets
 

This is the latest recevied weather packets stored in our database for station/object HG5CJW-10. If no packets are shown the sender has not sent any weather packets the latest 10 day(s).

<< 11 12 13 14 15 16 17 >>
Time Temp. Humidity Pressure Rain* Wind** Luminosity Snow
1788363250 26.67° C 40% 1038.2 hPa - - - -
1788362323 26.67° C 40% 1038.3 hPa - - - -
1788361423 26.67° C 39% 1038.3 hPa - - - -
1788360523 26.67° C 39% 1038.3 hPa - - - -
1788359623 26.67° C 39% 1038.3 hPa - - - -
1788358723 26.67° C 39% 1038.4 hPa - - - -
1788357823 26.11° C 39% 1037.6 hPa - - - -
1788356022 26.67° C 39% 1038.7 hPa - - - -
1788355122 26.67° C 39% 1038.9 hPa - - - -
1788354222 26.67° C 39% 1039 hPa - - - -
1788353322 26.67° C 39% 1039.1 hPa - - - -
1788352422 26.11° C 39% 1039.2 hPa - - - -
1788351522 26.11° C 39% 1039.3 hPa - - - -
1788350622 25.56° C 39% 1039.2 hPa - - - -
1788349717 25.56° C 39% 1039.7 hPa - - - -
1788348817 25.56° C 39% 1039.7 hPa - - - -
1788347916 25° C 40% 1040 hPa - - - -
1788347016 25° C 40% 1040.1 hPa - - - -
1788346116 24.44° C 40% 1040.2 hPa - - - -
1788345216 24.44° C 41% 1040.3 hPa - - - -
1788342516 23.33° C 42% 1040.6 hPa - - - -
1788340716 22.22° C 44% 1040.8 hPa - - - -
1788339816 22.22° C 44% 1040.8 hPa - - - -
1788338916 21.67° C 45% 1040.8 hPa - - - -
1788338016 21.11° C 45% 1040.8 hPa - - - -

* Rain since midnight (hover to see other rain measurements)
** Current wind speed in m/s (hover to see current wind gust speed)